Location: La Chapelle
(48.3135°N, 1.3085°W)
Time: 01:34:32
(UTC+00:00)

ARGOS - Pass Details

Date: 03 March 2021
Orbit: 819 x 835 km, 98.4° (Epoch: 16 April)

Event Time Altitude Azimuth Distance (km) Brightness Sun altitude
Rises 19:30:26 0° 181° (S) 3,367 6.2 -17.0°
Reaches altitude 10° 19:32:52 10° 187° (S) 2,439 5.6 -17.4°
Maximum altitude 19:38:05 48° 261° (W) 1,089 4.2 -18.3°
Drops below altitude 10° 19:43:20 10° 336° (NNW) 2,459 6.1 -19.1°
Sets 19:45:48 0° 342° (NNW) 3,397 6.8 -19.5°
